Find Kosmos-2132

NORAD ID: 21107 Int'l Des: 1991-009 Owner: UNKSR Country: SU operational
LEOCIRCULAR

Aktuelle Ansicht

3D-Globus wird geladen...

Über Kosmos-2132

Beschreibung wird geladen...

Nächste Überflüge

Passes for default location (London). Set your location on the main map for personalized predictions.

Höhenverlauf

Loading altitude history...

Zweizeiliger Elementsatz

1 21107U 91009H 26151.50890347 .00000003 00000-0 11684-3 0 9997
2 21107 74.0275 165.2618 0034477 325.9660 107.7089 12.55502295617702
Epoch: 31. Mai 2026 • Age: 6 hours

Aktueller Status

Höhe 1464.5 km
Geschwindigkeit 7.12 km/s
Subsatellitenpunkt -14.00°S, 179.19°W
Startdatum 12. Feb. 1991
Alter 35.2 years
Typ other

Technische Details

Klassifizierung Payload
Masse 60.00 kg
Trockenmasse 60.00 kg
Gesamtmasse 60.00 kg
Länge 0.80 m
Durchmesser 0.80 m
Spannweite 0.80 m
Form Poly
Hersteller NPOPM
Bus-Typ Strela-1 11F625
Phasenstatus In Orbit
Besitzer/Staat UNKSR/SU

Most Searched